Weather in Vladimir

Russia / Vladimir Oblast     56˚07′44″N   40˚24′23″E
temp.,
°C
wind,
m/s
gust,
m/s
humid.,
%
clouds,
%
prec.,
mm/h
press.,
hPa
HPBL,
m
1 december, tue
tue100:00−1˚s61289100 0.1 1033812
03:00−1˚s61285100 0.1 1033841
06:00−2˚sse51280100 0.0 1033675
09:00−3˚s51277100 0.0 1034652
12:00−1˚s51073100 0.0 1034776
15:00−2˚s3876100 0.0 1035726
18:00−2˚sse4975100 0.0 1035569
21:00−3˚s3877100 0.0 1036571
2 december, wed
wed200:00−3˚s2780100 0.0 1036383
03:00−3˚s2679100 0.0 1037375
06:00−4˚s2582100 0.0 1037156
09:00−4˚s248276 0.0 1038119
12:00−2˚s247671 0.0 1038326
15:00−3˚sse228078 0.0 103744
18:00−4˚sse238193 0.0 103785
21:00−5˚sse238065 0.0 103785
3 december, thu
thu300:00−5˚sse257993 0.0 1037151
03:00−6˚sse257895 0.0 1037163
06:00−6˚sse2577100 0.0 1036165
09:00−6˚sse3677100 0.0 1037220
12:00−5˚sse3668100 0.0 1036304
15:00−5˚sse3767100 0.0 1036291
18:00−6˚se3867100 0.0 1035285
21:00−6˚sse3864100 0.0 1035317
4 december, fri
fri400:00−6˚sse3765100 0.0 1035329
03:00−6˚sse386699 0.0 1035338
06:00−7˚sse376995 0.0 1035345
09:00−6˚sse386991 0.0 1035410
12:00−5˚sse477282 0.0 1036439
15:00−5˚sse477987 0.0 1036439
18:00−6˚sse478780 0.0 1036414
21:00−6˚se377279 0.0 1037339
5 december, sat
sat500:00−6˚sse376864 0.0 1037331
03:00−6˚sse376967 0.0 1038310
06:00−6˚se376965 0.0 1038298
09:00−7˚sse377159 0.0 1038278
12:00−5˚sse47635 0.0 1039344
15:00−5˚se37652 0.0 1039280
18:00−7˚se38680 0.0 1039250
21:00−7˚se38680 0.0 1040251